5 K AVEC PALMES - 12/09/2020

CLASSEMENT PROVISOIRE


Pos. Dos. Nom Prénom Sx Temps
1 2309 Lebeau Remy H 49:54,34 Mono-palme
2 2702 Thill Alexandre H 53:31,18 Mono-palme
3 2021 Dauce Appoline F 53:36,65 Mono-palme
4 1872 Bernard Kim F 53:39,43 Mono-palme
5 2627 Sanchez Laurent H 54:10,67 Mono-palme
6 2218 Henneteau Alexandre H 54:12,10 Bi-palmes
7 2525 Ploetze Yan H 55:12,15 Bi-palmes
8 2308 Le Roy Wolfgang H 57:17,42 Mono-palme
9 1997 CLERDOUET Roland H 59:33,91 Mono-palme
10 2035 DEBRAY Aurane F 01:00:03,84 Mono-palme
11 2246 Jaques Ariane F 01:00:18,63 Bi-palmes
12 2613 Runfola Florent H 01:01:24,08 Bi-palmes
13 2728 Vandenbergen Louise F 01:01:45,61 Bi-palmes
14 2061 Desbordes Mila F 01:02:08,69 Bi-palmes
15 1943 CAIAZZO CHRISTOPHE H 01:02:12,60 Bi-palmes
16 2056 Denjean Constantin H 01:02:19,39 Bi-palmes
17 1870 Bensasson Raphael H 01:02:32,72 Bi-palmes
18 2323 LEMAIRE Gael H 01:02:44,53 Bi-palmes
19 2501 Petit Xavier H 01:02:49,79 Mono-palme
20 2598 ROMERA Frédéric H 01:04:03,60 Bi-palmes
21 2136 FILS Meredith F 01:05:09,23 Mono-palme
22 2430 Miss Pierre H 01:05:38,13 Bi-palmes
23 2650 Sentis Thomas H 01:05:45,37 Bi-palmes
24 2619 SAINT MARTIN JULIEN H 01:06:30,73 Bi-palmes
25 2532 PONTIER Régis H 01:07:02,34 Bi-palmes
26 1999 Colombe Denis H 01:07:58,34 Bi-palmes
27 2497 PETIOT Arnaud H 01:08:00,47 Bi-palmes
28 2599 rommeveaux pascal H 01:08:33,16 Bi-palmes
29 1832 ARNOUX Paul H 01:08:40,06 Bi-palmes
30 2319 Leggeri Benjamin H 01:08:53,10 Bi-palmes
31 1918 BOTTERO SERGE H 01:09:09,73 Mono-palme
32 2559 RAVET OLIVIER H 01:09:58,49 Mono-palme
33 2590 ROBERT Jérémie H 01:10:18,57 Bi-palmes
34 2059 derrien chloé F 01:10:20,52 Bi-palmes
35 2476 parisot eric H 01:10:33,41 Bi-palmes
36 2759 VORBE ERIC H 01:10:36,03 Bi-palmes
37 1883 BIANCO Richard H 01:11:35,12 Bi-palmes
38 2698 THIBAUD Pierre H 01:12:12,81 Bi-palmes
39 1837 AUPHAN Thomas H 01:12:23,34 Bi-palmes
40 1945 CAILHOL STEPHANE H 01:12:23,55 Bi-palmes
41 2013 Dacheux Denis H 01:12:24,47 Mono-palme
42 2761 walczak delphine F 01:12:43,36 Mono-palme
43 2403 Mehl Matthieu H 01:13:01,00 Bi-palmes
44 2518 PIGNOL Gilles H 01:13:01,80 Bi-palmes
45 2070 Detrez vallez audrey F 01:13:05,77 Mono-palme
46 2687 Tagarian Dominique F 01:13:17,67 Mono-palme
47 2196 Gros Gros H 01:13:18,61 Mono-palme
48 2036 decaux xavier H 01:13:49,86 Bi-palmes
49 2240 JAFFRENNOU Acanthe F 01:13:54,33 Bi-palmes
50 2402 Mehl Johannie F 01:13:59,01 Bi-palmes
51 2670 SMETEK Martin H 01:14:03,45 Bi-palmes
52 2469 Palma Gabin H 01:14:06,51 Mono-palme
53 2738 VERMARE Anne F 01:14:15,94 Bi-palmes
54 2367 MARCHAND AURELIEN H 01:14:36,85 Bi-palmes
55 2505 Peyrard Manon F 01:15:05,01 Bi-palmes
56 2565 Redon Elodie F 01:15:05,28 Bi-palmes
57 2690 Tamiatto Emmanuel H 01:15:05,66 Bi-palmes
58 2663 SILVESTRE FRANCK H 01:15:23,48 Bi-palmes
59 1860 Beccaro Orietta F 01:15:36,12 Bi-palmes
60 2444 Mus Valérie F 01:15:43,40 Mono-palme
61 2646 senechal olivier H 01:15:47,61 Bi-palmes
62 2454 NOEL Corentin H 01:15:54,92 Bi-palmes
63 2064 DESCORPS VINCENT H 01:16:00,92 Bi-palmes
64 2506 Peyronel Rémy H 01:16:03,69 Bi-palmes
65 2664 Simon Frederic H 01:16:04,08 Bi-palmes
66 2020 Dartigelongue Jean pierre H 01:16:05,36 Bi-palmes
67 2258 Julien Magali F 01:16:13,83 Bi-palmes
68 2706 Toubin Fanny F 01:16:19,05 Bi-palmes
69 2086 DOUR Enguerran H 01:16:29,46 Bi-palmes
70 2411 MERCIER Michel H 01:16:32,44
71 2511 PICARD Vincent H 01:16:39,85 Bi-palmes
72 1938 BULLOT Aldric H 01:16:44,12 Bi-palmes
73 2001 CONEJERO Sébastien H 01:16:46,47 Bi-palmes
74 2417 MESSAGER VINCENT H 01:16:55,86 Bi-palmes
75 1882 BIANCHI Julien H 01:17:07,93 Bi-palmes
76 1857 Béarée Antoine H 01:17:17,38 Bi-palmes
77 2445 Nadeau Pierre-Yves H 01:17:19,33 Bi-palmes
78 2282 Lainé Antoine H 01:17:25,61 Bi-palmes
79 2003 CORABOEUF Vincent H 01:17:34,01 Bi-palmes
80 2182 GIRARD ALINE F 01:17:40,52 Bi-palmes
81 1886 Biglione Christophe H 01:17:48,09 Bi-palmes
82 2579 RIBUL-CONTE Fabien H 01:18:02,95 Bi-palmes
83 2098 Dupuch Alexandre H 01:18:12,78 Bi-palmes
84 1836 AUDEBERT Philippe H 01:18:14,67 Bi-palmes
85 2656 SERRU Laurent H 01:18:23,99 Bi-palmes
86 2623 salmon céline F 01:18:25,14 Bi-palmes
87 2439 MOZDZONEK ADAM H 01:18:26,92 Mono-palme
88 2587 Riutort Pascal H 01:18:30,17 Mono-palme
89 2510 Piacentile Marc-antoine H 01:18:30,75 Bi-palmes
90 2053 Delmarre Phillipe H 01:18:34,62 Bi-palmes
91 2731 varnier laure F 01:18:46,92 Bi-palmes
92 2155 FUKARI Ernest-Michel H 01:19:01,53 Bi-palmes
93 2332 Lézy Xavier H 01:19:12,97 Bi-palmes
94 2345 Magnien Sibylle F 01:19:13,99 Bi-palmes
95 2230 HUDE Eric H 01:19:24,11 Bi-palmes
96 2641 SCHREIBER Xavier H 01:19:26,15 Bi-palmes
97 2632 SAURY Xavier H 01:19:26,66 Bi-palmes
98 2629 Sarris Severine F 01:19:39,76 Bi-palmes
99 2285 Landauro Inti H 01:19:45,34 Bi-palmes
100 2724 VALETTE stephane F 01:19:52,57 Bi-palmes
101 2209 GUILLEMOT Francois H 01:19:53,67 Bi-palmes
102 2250 Jean-Manuel Roux H 01:19:59,64 Bi-palmes
103 2704 TODE LINA F 01:20:04,82 Bi-palmes
104 1897 BOGAERT Davy H 01:20:12,88 Bi-palmes
105 2006 COSTE AZEMA Nathalie F 01:20:14,41 Bi-palmes
106 2422 Michel Laure F 01:20:15,89 Bi-palmes
107 2312 Lefebvre Dimitri H 01:20:19,09 Bi-palmes
108 2413 Merle Valerie F 01:20:19,37 Bi-palmes
109 2727 vancraeyenest jean michel H 01:20:26,81 Bi-palmes
110 2242 Jalabert Alain H 01:20:32,35 Bi-palmes
111 1863 BEGUIN Isabelle F 01:20:34,12 Bi-palmes
112 2424 Milou Nicolas H 01:20:38,48 Bi-palmes
113 2096 Duchatel Thom H 01:20:40,62 Bi-palmes
114 2610 Rouyer Romain H 01:20:47,30 Bi-palmes
115 5130 Wolski Anna F 01:20:49,13 Bi-palmes
116 2736 Verdelhan Denis H 01:20:49,15 Bi-palmes
117 2560 reboa philippe H 01:20:54,22 Bi-palmes
118 2384 MATON Laurent H 01:21:01,46 Bi-palmes
119 1890 Blanc Adrien H 01:21:02,57 Bi-palmes
120 2520 PILOT Fabricia F 01:21:06,93 Bi-palmes
121 2584 Rineau Yann H 01:21:13,35 Bi-palmes
122 1825 Andreani Dominique H 01:21:18,11 Bi-palmes
123 2018 daniel stephane H 01:21:21,20 Bi-palmes
124 2089 Dracacci Isabelle F 01:21:21,79 Bi-palmes
125 2495 PERRUCHIO Alexandre H 01:21:26,00 Bi-palmes
126 2437 MOSCA THIERRY H 01:21:35,90 Bi-palmes
127 2346 MAIGNE FREDERIC H 01:21:37,71 Bi-palmes
128 2409 Mercadié Eric H 01:21:49,65 Bi-palmes
129 1899 BOITARD Jean Christophe H 01:21:56,67 Mono-palme
130 2265 kolou isaline F 01:22:04,40 Bi-palmes
131 1864 BELIE PHILIPPE H 01:22:05,17 Bi-palmes
132 1875 Bernard sophie F 01:22:11,47 Bi-palmes
133 2694 Tedesco Nicolas H 01:22:24,29 Bi-palmes
134 2453 nodin thibault H 01:22:35,61 Bi-palmes
135 2216 Harmand Stephane H 01:22:47,61 Bi-palmes
136 2396 MAZEAS Luc H 01:22:57,63 Bi-palmes
137 2729 Vangheluwe Marie F 01:23:20,41 Bi-palmes
138 2523 Pitarch Eric H 01:23:23,76 Bi-palmes
139 5133 DRIEU FREDERIC H 01:23:29,04 Bi-palmes
140 2243 JALAGUIER Vincent H 01:23:33,14 Bi-palmes
141 1831 ARNOUX Jean-Pierre H 01:23:34,66 Bi-palmes
142 2084 DOUR Agnes F 01:23:35,50 Bi-palmes
143 2232 HUMMEL FREDERIC H 01:23:46,64 Bi-palmes
144 1894 Blangy Florent H 01:23:52,08 Bi-palmes
145 2138 FLORES Guillem H 01:23:57,17 Bi-palmes
146 2593 ROBET CORINE F 01:23:57,31 Bi-palmes
147 2223 hohwald jean-marc H 01:24:02,48 Bi-palmes
148 2168 Gautier Julien H 01:24:05,65 Bi-palmes
149 2005 cossa jean-luc H 01:24:11,49 Bi-palmes
150 1932 Brousse Christophe H 01:24:19,20 Bi-palmes
151 1826 Anne Thierry H 01:24:24,86 Bi-palmes
152 2466 PACE BENJAMIN H 01:24:32,10 Bi-palmes
153 2085 DOUR Didier H 01:24:35,15 Bi-palmes
154 1968 CERISIER Magali F 01:24:41,40 Bi-palmes
155 2715 TRONCHE Eric H 01:24:44,62 Bi-palmes
156 2721 VACHEZ Elsa F 01:24:47,49
157 2324 Lemoine Clara F 01:24:57,66 Bi-palmes
158 2427 Mingam Carole F 01:25:10,72 Bi-palmes
159 2376 MARSE Céline F 01:25:10,95 Bi-palmes
160 2121 espitalier jacques H 01:25:21,07 Bi-palmes
161 2023 David-Hine Mathieu H 01:25:21,19 Bi-palmes
162 2464 OLIVIER JOANNE F 01:25:35,92 Bi-palmes
163 2393 MAYAUD Philippe H 01:25:46,16 Bi-palmes
164 2586 RIOUX Maud F 01:25:48,87 Bi-palmes
165 2212 GUYON Sylvain H 01:25:49,94 Bi-palmes
166 2719 TUZET Catherine F 01:25:52,35 Bi-palmes
167 2159 Galleri Anne-Charlotte F 01:25:52,95 Bi-palmes
168 2137 Fiorentino Céline F 01:25:56,48 Bi-palmes
169 2183 GIROUX Arnaud H 01:25:59,23 Bi-palmes
170 2603 ROUDIERE FABRICE H 01:26:02,47 Bi-palmes
171 2540 PRADES Laurent H 01:26:05,33 Bi-palmes
172 1954 Canut CHRISTOPHE H 01:26:07,30 Bi-palmes
173 2316 Lefranc Anne-Christelle F 01:26:10,65 Bi-palmes
174 2489 Pelou Romain H 01:26:16,97 Bi-palmes
175 2682 Stroz Francois H 01:26:18,59 Bi-palmes
176 5132 GABRIEL Paul H 01:26:19,43 Bi-palmes
177 2628 Santelli Thibault H 01:26:21,55 Bi-palmes
178 2561 Reboul Lila F 01:26:22,49 Bi-palmes
179 1994 Clement Pourtal H 01:26:23,91 Bi-palmes
180 5135 HAMDANI JADE F 01:26:26,30
181 5141 amaudric florence F 01:26:30,75 Bi-palmes
182 1989 cigolet clÈa F 01:26:31,18 Bi-palmes
183 2600 rosoli stephane H 01:26:35,39 Bi-palmes
184 2016 dalenc marie-pierre F 01:26:44,74 Bi-palmes
185 1927 Braud Pascal H 01:26:47,40 Bi-palmes
186 1856 BAZILE Patrice H 01:26:51,49 Bi-palmes
187 2318 Lefrancq Martin H 01:26:57,96 Bi-palmes
188 2431 Moinard François H 01:27:02,69 Bi-palmes
189 2768 Yordamlis Nicolas H 01:27:03,31 Bi-palmes
190 2328 LEVY Monique F 01:27:04,55 Bi-palmes
191 2647 SENELLART Blandine F 01:27:06,58 Bi-palmes
192 2110 Dusseau Rodolphe H 01:27:10,16 Bi-palmes
193 2109 Dusseau Gilbert H 01:27:12,00 Bi-palmes
194 1990 clairet Clairet F 01:27:17,31 Bi-palmes
195 2410 Mercier Marie F 01:27:18,57 Bi-palmes
196 2377 MARTEL Anouk F 01:27:25,35 Bi-palmes
197 2556 Raimbault Emmanuel H 01:27:26,47 Bi-palmes
198 2468 Pairel Stéphane H 01:27:33,20 Bi-palmes
199 2426 Mineo Marc H 01:27:36,22 Bi-palmes
200 2750 VIDAL JEROME H 01:27:36,94 Bi-palmes
201 2429 COSTECHAREYRE AGNES F 01:27:39,78
202 2757 VITTORI LILIANE F 01:27:43,08 Bi-palmes
203 2127 FAIS Sebastien H 01:27:45,03 Bi-palmes
204 1998 COJ Valérie F 01:27:46,26 Bi-palmes
205 2654 Serra Yoann H 01:27:54,21 Bi-palmes
206 2344 MAGNIEN Alain H 01:27:58,43 Bi-palmes
207 2221 Hiéronimus Sophie F 01:28:00,13 Bi-palmes
208 1902 BONDIL Sébastien H 01:28:05,05 Bi-palmes
209 2751 Videira Luis Philippe H 01:28:09,14 Bi-palmes
210 2605 Roussel-Clouet Suzanne F 01:28:14,97 Bi-palmes
211 2479 Pasini Andrea H 01:28:15,05 Bi-palmes
212 1824 ANDRÉ Jean-Luc H 01:28:26,03 Bi-palmes
213 2286 Landauro Waina H 01:28:29,34 Bi-palmes
214 2117 ENNAIFAR Adnène H 01:28:32,97 Bi-palmes
215 2227 HOSTALRICH Christophe H 01:28:35,08 Bi-palmes
216 2193 Greck Sandra F 01:28:36,61 Bi-palmes
217 2213 Hall Kathleen F 01:28:37,01 Bi-palmes
218 2752 vignolo joelle F 01:29:05,67 Bi-palmes
219 2499 Petit Sylviane F 01:29:08,39 Bi-palmes
220 2574 Reynard Simon H 01:29:08,69 Bi-palmes
221 2755 VILLANO Mireille F 01:29:09,08 Bi-palmes
222 1843 Bailly Anne-laure F 01:29:15,32 Bi-palmes
223 2433 Monet Laurence F 01:29:17,44 Bi-palmes
224 2276 Lagache Clément H 01:29:22,64 Bi-palmes
225 2742 Veron Héléna F 01:29:22,72 Bi-palmes
226 1903 Bonnemaison Agathe F 01:29:24,74 Bi-palmes
227 2672 Sori Gilbert H 01:29:29,19 Bi-palmes
228 2274 Laffargue Emmanuel H 01:29:37,42 Bi-palmes
229 2176 GESLIN CHRISTINE F 01:29:42,19 Bi-palmes
230 1941 Busson Olivier H 01:29:46,84 Bi-palmes
231 1904 Bonnemaison Nicolas H 01:29:47,29 Bi-palmes
232 2407 MENGUAL VANESSA F 01:29:52,10 Bi-palmes
233 2226 Horr Joachim H 01:30:01,40 Bi-palmes
234 1952 CANIOT DANIEL H 01:30:13,17 Bi-palmes
235 2642 SECONDI CAROLINE F 01:30:14,13 Bi-palmes
236 2338 Lusgarten Stephane H 01:30:19,02 Bi-palmes
237 2092 Droz Ariane F 01:30:28,10 Bi-palmes
238 2594 ROBET LAURIANE F 01:30:40,60 Bi-palmes
239 1987 Chevalier Ghislaine F 01:30:42,12 Bi-palmes
240 2487 PELLEGRINI Karine F 01:30:43,81 Bi-palmes
241 2573 reymond nicolas H 01:30:44,74 Mono-palme
242 2577 Reynier Isabelle F 01:30:45,27 Bi-palmes
243 2548 PUJUILA Renee F 01:30:46,62 Bi-palmes
244 2062 DESBOS Diane F 01:30:50,65 Bi-palmes
245 1895 bleynat SOPHIE F 01:31:01,11 Mono-palme
246 2198 Gruberbauer Catrin F 01:31:01,99 Bi-palmes
247 1815 ADAMO Christophe H 01:31:05,26 Bi-palmes
248 2744 VERRIER Isabelle F 01:31:05,35 Bi-palmes
249 2203 Guidali Pablo H 01:31:05,43 Bi-palmes
250 2048 Jariel Christophe H 01:31:08,06 Bi-palmes
251 2082 Dorsey Kayla F 01:31:13,95 Bi-palmes
252 1874 BERNARD Raphaël H 01:31:14,68 Bi-palmes
253 1950 Campocasso Stephane H 01:31:21,29 Bi-palmes
254 2644 Semiaticki Adrienne F 01:31:22,60 Bi-palmes
255 1931 Broudiscou clemence F 01:31:25,97 Bi-palmes
256 2722 valentin francois H 01:31:29,05 Bi-palmes
257 2710 TOURNARDRE SANDRA F 01:31:34,67 Bi-palmes
258 2255 JOUBERT Emmanuel H 01:31:45,84 Bi-palmes
259 2260 Karlin David H 01:31:48,12 Bi-palmes
260 1908 Bosinco Julie F 01:31:50,16 Bi-palmes
261 2103 Dupuy Stéphanie F 01:31:51,10 Bi-palmes
262 2273 LADUNE CLAUDE F 01:32:01,60 Bi-palmes
263 1873 BERNARD Maude F 01:32:06,23 Bi-palmes
264 2498 PETIT Marie-Noelle F 01:32:07,40 Bi-palmes
265 2025 DE BEAUREPAIRE THIERRY H 01:32:07,57 Bi-palmes
266 2272 Laderach Looping H 01:32:07,72 Bi-palmes
267 1817 Ahrens Kayla F 01:32:08,69 Bi-palmes
268 1939 buonocore bruno H 01:32:18,30 Bi-palmes
269 2473 Paoli Eléa F 01:32:22,43 Bi-palmes
270 1833 ATLAN LAURENT H 01:32:25,90 Bi-palmes
271 2718 Tuderot Fabrice H 01:32:30,95 Bi-palmes
272 2331 LEZY GILBERT H 01:32:36,34 Bi-palmes
273 1848 Banet Julie F 01:32:36,50
274 2057 Depestele Bruno H 01:32:38,55 Bi-palmes
275 1901 BON Sébastien H 01:32:48,15 Bi-palmes
276 2192 GRAS Alexandre H 01:32:57,02 Bi-palmes
277 2199 GRUSON PAUL H 01:33:12,08 Bi-palmes
278 2060 DERRIEN Thomas H 01:33:18,42 Bi-palmes
279 1830 ARGAUD Antoine H 01:33:28,51 Bi-palmes
280 2737 vergne karine F 01:33:36,68 Bi-palmes
281 1961 carraz gilles H 01:33:47,60 Bi-palmes
282 1888 bitton patricia F 01:33:51,09 Bi-palmes
283 2007 COULOMB Marine F 01:33:56,18 Bi-palmes
284 2040 del marro marc H 01:33:58,87 Bi-palmes
285 1905 bonnet cécile F 01:34:00,95 Bi-palmes
286 2157 galibert geraldine F 01:34:09,91 Mono-palme
287 2676 Stasi Sergio Enrico H 01:34:14,32 Bi-palmes
288 2014 Daigne Clémence F 01:34:27,15 Bi-palmes
289 2352 Malard Laetitia F 01:34:29,40 Bi-palmes
290 2369 Mariage Anaïs F 01:34:33,03 Bi-palmes
291 2038 deguillen olivier H 01:34:37,72 Bi-palmes
292 1893 Blanchet Karl H 01:34:51,81 Mono-palme
293 2034 de SERCEY Guillaume H 01:34:53,37 Bi-palmes
294 2194 Grégoire Mellet H 01:34:56,75 Bi-palmes
295 2740 Vermeulen Cyril H 01:35:05,21 Bi-palmes
296 2375 MARQUIER PASCALE F 01:35:07,20 Bi-palmes
297 2734 VENTURA Franz H 01:35:09,74 Bi-palmes
298 2066 Desouches Renaud H 01:35:16,18 Bi-palmes
299 2745 Vervier Daniel H 01:35:22,23 Bi-palmes
300 2033 de Minvielle Fabrice H 01:35:36,10 Bi-palmes
301 2572 Rey Nathalie F 01:35:45,40 Bi-palmes
302 2609 Roux Isabelle F 01:36:19,40 Bi-palmes
303 2680 Stephan Serge H 01:36:19,55 Bi-palmes
304 2134 Feral Sabine F 01:36:20,12 Bi-palmes
305 2266 KONG Nicolas H 01:36:21,95 Mono-palme
306 2406 Menard christophe H 01:36:38,17 Bi-palmes
307 1975 Chancerelle Beatrice F 01:36:38,46 Bi-palmes
308 2144 fradj mohamed H 01:36:46,70 Bi-palmes
309 1959 Caron Bénédicte F 01:36:48,72 Bi-palmes
310 2141 FOURISCOT Gilles H 01:36:52,49 Bi-palmes
311 2582 Riffard Alain H 01:36:55,98 Bi-palmes
312 2329 LEYAT Chantal F 01:36:57,57 Bi-palmes
313 2010 culioli valerie F 01:36:59,86 Bi-palmes
314 2667 SIMONIN FREDERIC H 01:37:08,81 Bi-palmes
315 2404 MELKONIAN FLORIANE F 01:37:16,06 Bi-palmes
316 1821 Amart Lise F 01:37:16,77 Bi-palmes
317 2474 Paoli Nicole F 01:37:17,39 Bi-palmes
318 2631 SAURY Dominique F 01:37:35,74 Bi-palmes
319 1834 Auber Hippolyte H 01:37:41,54 Bi-palmes
320 2037 DEFOSSEZ Michel H 01:37:44,85 Bi-palmes
321 2364 Marangone Giane F 01:37:48,22 Bi-palmes
322 2436 Morra Frédéric H 01:37:58,74 Bi-palmes
323 2044 Delaporte Olivier H 01:38:21,10 Bi-palmes
324 1963 CARREIRA NEVES Amandine F 01:38:25,87 Bi-palmes
325 2022 Daumail Meryem F 01:38:30,55 Bi-palmes
326 2746 Veyrier Françoise F 01:38:31,11 Bi-palmes
327 2161 GARITEY Vincent H 01:38:38,87 Bi-palmes
328 2472 pantel muriel F 01:38:42,82 Bi-palmes
329 2405 MELKONIAN Ludovic H 01:38:43,79 Bi-palmes
330 2185 gobert christine F 01:38:44,12 Bi-palmes
331 2244 jandot jean pierre H 01:38:45,54 Bi-palmes
332 2684 Sunyach Claire F 01:38:49,44 Bi-palmes
333 2353 Malbequi Camille F 01:38:53,54 Bi-palmes
334 1891 Blanc Christophe H 01:38:53,66 Bi-palmes
335 2012 D'onofrio Marie Noelle F 01:38:56,05 Bi-palmes
336 2041 Delage Pierre-Luc H 01:39:00,65 Bi-palmes
337 2484 Pecora Alfonso H 01:39:03,01 Bi-palmes
338 2238 Jacquet Marion F 01:39:07,21 Bi-palmes
339 1982 chaventon annelaure F 01:39:15,15 Bi-palmes
340 5142 Palacios Acedo Ana Luisa F 01:39:16,24 Bi-palmes
341 1992 Claret Corinne F 01:39:17,10 Bi-palmes
342 1898 Bohard Jerome H 01:39:19,88 Bi-palmes
343 2549 Quersante Jean marie H 01:39:19,88 Bi-palmes
344 2024 DAVIER BONNEVILLE FLORENCE F 01:39:33,63 Bi-palmes
345 2524 Plassard Pierre-Yves H 01:39:37,28 Bi-palmes
346 2249 JEAN Marie-Julie F 01:39:39,30 Bi-palmes
347 1869 Benquet Olivier H 01:39:49,61 Bi-palmes
348 2104 Duquesnoy Sylvie F 01:39:52,36 Bi-palmes
349 2313 LEFEVRE Denis H 01:40:07,81 Mono-palme
350 2512 picatto angelique F 01:40:08,64 Bi-palmes
351 2233 HUYGEVELDE Thomas H 01:40:10,73 Bi-palmes
352 2146 Franco marc H 01:40:28,15 Bi-palmes
353 2295 Laurent Florence F 01:40:29,09 Bi-palmes
354 1822 amorosino michel H 01:40:32,57 Bi-palmes
355 2150 FREMIT Olivier H 01:40:39,18 Bi-palmes
356 2471 PANNETIER Christophe H 01:40:39,79 Bi-palmes
357 5143 NEPHTALI GUILLAUME H 01:40:46,35 Bi-palmes
358 2467 Pailler Elodie F 01:40:50,43 Bi-palmes
359 2181 GILBERT Florence F 01:41:00,82 Bi-palmes
360 1884 Bidaut Benjamin H 01:41:13,10 Bi-palmes
361 1906 BONNIN Patrick H 01:41:23,82 Bi-palmes
362 1988 CHEVREUIL Steve H 01:41:44,13 Bi-palmes
363 2563 Reby Gilbert H 01:41:52,00 Bi-palmes
364 2651 SERANO BERNARD H 01:41:59,47 Bi-palmes
365 2348 Mairet Armelle F 01:42:00,19 Bi-palmes
366 2202 Guerrini Pierre H 01:42:06,24 Bi-palmes
367 2184 GOBBI Chantal F 01:42:07,01 Bi-palmes
368 2205 Guilbaud Sébastien H 01:42:14,66 Bi-palmes
369 1996 Clerc Jean Francois H 01:42:31,41 Bi-palmes
370 2349 Maisonneuve Bernard H 01:42:36,09 Bi-palmes
371 2591 ROBERT Régis H 01:42:41,43 Bi-palmes
372 1880 BESSEYRE DES HORTS Alexiane F 01:43:19,41 Bi-palmes
373 2478 PARODI CECILE F 01:43:19,93 Bi-palmes
374 2772 ZEBIC VERONIKA F 01:43:24,09 Bi-palmes
375 2330 LEYAT Timothée H 01:43:26,35 Bi-palmes
376 2604 ROUSSEL Olivier H 01:43:32,48 Bi-palmes
377 2251 Jocquel Stéphane H 01:43:34,93 Bi-palmes
378 1828 Ansel Michèle F 01:43:48,29 Bi-palmes
379 2465 Orsini Cécile F 01:44:00,52 Bi-palmes
380 2659 SEVERAC Gaëtan H 01:44:06,91 Bi-palmes
381 1879 Besnard Donatien H 01:44:10,47 Bi-palmes
382 2175 Germain Anais F 01:44:22,88 Bi-palmes
383 2397 MAZEAS Sylvie F 01:44:24,44 Bi-palmes
384 2620 SAINT MARTIN Luc H 01:44:44,37 Bi-palmes
385 2253 JORDON Doris F 01:44:45,97 Bi-palmes
386 2494 Perrot Clementine F 01:45:12,13 Bi-palmes
387 2094 dubos florent H 01:45:13,72 Bi-palmes
388 5144 Blanc Frederic H 01:45:31,92 Bi-palmes
389 2171 GENIN Emmanuelle F 01:46:03,81 Bi-palmes
390 2558 Ranque Stephanie F 01:46:12,43 Bi-palmes
391 2269 La Barbera Caroline F 01:46:17,12 Bi-palmes
392 2267 Kuhn Didier H 01:46:21,08 Bi-palmes
393 2575 reynaud philippe H 01:46:27,60 Bi-palmes
394 2229 HOUEL Allan H 01:46:35,11 Bi-palmes
395 2443 MURAT PAUL H 01:46:36,14 Bi-palmes
396 2557 ramillon helene F 01:46:38,57 Bi-palmes
397 2224 Honen Hervé H 01:46:44,48 Bi-palmes
398 2491 Perigault Pierre H 01:46:55,69 Bi-palmes
399 2438 MOURHALI Nadia F 01:46:56,01 Bi-palmes
400 2515 pierson estelle F 01:47:02,95 Bi-palmes
401 2714 Trmal Céline H 01:47:11,58 Bi-palmes
402 2712 Trémisi Isabelle F 01:47:24,56 Bi-palmes
403 2204 Guilbaud Charlotte F 01:47:29,74 Bi-palmes
404 2649 Senouci Mohamed H 01:47:35,97 Bi-palmes
405 2131 faraud marie F 01:47:40,16 Bi-palmes
406 2621 Salinero Maryline F 01:47:55,94 Bi-palmes
407 2678 STEINHAUER Philippe H 01:48:07,69 Bi-palmes
408 2592 Robert-Peillard Eric H 01:48:35,16 Bi-palmes
409 2509 PHILIS Alain H 01:48:38,48
410 2142 Fournié Pauline F 01:48:51,75 Bi-palmes
411 2237 Jacquet Carole F 01:49:08,98 Bi-palmes
412 2373 Marie-Eva Bellier F 01:49:12,73 Bi-palmes
413 1940 BURGAT CAMILLE F 01:49:15,61 Bi-palmes
414 2112 DUVAL Christophe H 01:49:32,12 Bi-palmes
415 1915 Bottai Julie F 01:49:57,65 Bi-palmes
416 2514 Pierrier Aurore F 01:49:58,53 Bi-palmes
417 2050 dellamonica Camille F 01:50:10,62 Bi-palmes
418 2052 dellamonica gabriel H 01:50:10,77 Bi-palmes
419 2530 Poncet Morgane F 01:50:12,54
420 2049 DELLA MONICA Emmanuelle F 01:50:14,16 Bi-palmes
421 5129 prigent Sylvie F 01:50:17,17 Mono-palme
422 2529 Poncet Laurent H 01:50:18,32 Bi-palmes
423 1964 castagnas luce F 01:50:20,96 Bi-palmes
424 2551 quilichini marie F 01:50:24,46 Bi-palmes
425 1889 BLAISSE BEATRICE F 01:50:25,24 Bi-palmes
426 2552 RABASEDA SANDRINE F 01:50:26,94 Bi-palmes
427 2225 Honnorat Chantal F 01:50:31,09 Bi-palmes
428 2294 LAURENT ELISE F 01:50:42,72 Bi-palmes
429 2027 De branche Marie F 01:50:46,79 Bi-palmes
430 2583 RIGHI STEPHANE H 01:51:02,37 Bi-palmes
431 2440 MSIKA ADRIEN H 01:51:23,76 Bi-palmes
432 2287 Lapaque Florence F 01:51:31,13 Bi-palmes
433 2513 picatto jessica F 01:51:48,08 Bi-palmes
434 2245 Janelle Anne sophie F 01:51:48,73 Bi-palmes
435 1916 BOTTASSO CHRISTOPHE H 01:51:51,64 Bi-palmes
436 2568 Regaldo-Saint Blancard Lucie F 01:52:04,59 Bi-palmes
437 1983 CHEHU Bernadette F 01:52:53,29 Bi-palmes
438 2622 Salminen Pauliina F 01:53:04,69 Bi-palmes
439 2580 Riemann Alain H 01:53:28,88 Bi-palmes
440 2296 Laurent Santana H 01:53:55,72 Bi-palmes
441 2081 domenach xavier H 01:54:03,60 Bi-palmes
442 2154 FUKARI Cécile F 01:54:14,79 Bi-palmes
443 2504 PEYRADE TRAMAZAYGUES Franck H 01:54:42,15 Bi-palmes
444 2658 Sesana Angelo H 01:55:08,25 Bi-palmes
445 2733 VENTURA Enzo H 01:55:36,16 Bi-palmes
446 2307 le prunennec nathalie F 01:56:06,10 Bi-palmes
447 2630 Sassot Axelle F 01:56:15,76 Bi-palmes
448 2123 ET-TAMIS IMAD H 01:57:25,02 Bi-palmes
449 2078 DI STEFANO Valérie F 01:57:28,54 Bi-palmes
450 1808 Abric Bernard H 01:58:02,98 Bi-palmes
451 2284 Landauro anibal H 01:58:25,91 Bi-palmes
452 2370 Mariage Frédéric H 01:58:38,63 Bi-palmes
453 2166 Gauthier Charles H 01:59:11,37 Bi-palmes
454 2765 Wintrich Sandrine F 01:59:43,69 Bi-palmes
455 2087 DOUXAMI Richard H 01:59:52,62 Mono-palme
456 2488 Pelletier Patrick H 02:00:47,36 Bi-palmes
457 2302 Lazarus Frederique F 02:01:01,02 Bi-palmes
458 2446 NALPAS Véronique F 02:01:05,79 Bi-palmes
459 2354 Malbrancke Jérémie H 02:02:04,04 Bi-palmes
460 5131 RAHAL Sophie F 02:02:11,10 Bi-palmes
461 2281 LAHAYE Manon F 02:03:07,29 Bi-palmes
462 2133 Fayette Hélène F 02:04:44,20 Bi-palmes
463 2387 MAUDUIT Jean-Paul H 02:04:49,96 Bi-palmes
464 1810 Abric deborah F 02:05:57,67 Bi-palmes
465 2507 Philippot Emmanuelle F 02:06:46,71 Bi-palmes
466 2508 Philippot Odile F 02:06:48,91 Bi-palmes
467 2361 MANIFACIER Benedicte F 02:08:29,58 Bi-palmes
468 2395 MAYRAND philippe H 02:09:08,04 Bi-palmes
469 1935 BRUNET Virginie F 02:09:12,61 Bi-palmes
470 1871 Berbigier Aurélie F 02:09:17,91 Bi-palmes
471 2080 Dina Adriana Gabriela F 02:09:52,61 Bi-palmes
472 2164 Gassmann Edouard H 02:10:46,60 Bi-palmes
473 2063 Deschamps Laurence F 02:11:09,75 Bi-palmes
474 2475 PAPINI Odile F 02:13:54,77 Bi-palmes
475 2483 Paul Jean Claude H 02:14:56,97 Bi-palmes
476 5134 Collomb Alice F 02:21:11,10 Bi-palmes
477 1974 CHANAUD Caroline F 02:29:53,41 Bi-palmes
- 2362 MANTET Christophe H Abandon Bi-palmes
- 1835 Aubin Laetitia F Abandon Bi-palmes
- 2043 Delanglade Xavier H Abandon Bi-palmes
- 2442 MSIKA PIERRE H Abandon Bi-palmes
- 2547 puget line F Abandon Bi-palmes
- 2517 Pieve Pierre H Abandon Bi-palmes
- 1949 camoin jerome H Abandon Bi-palmes
- 2441 MSIKA OLIVIER H Abandon Bi-palmes
- 2065 Desouches Christophe H Abandon Bi-palmes
- 2455 NOEL Loïc H Abandon Bi-palmes
Généré le 01/06/2021 00:01:05